TimeEST,TemperatureF,Dew PointF,Humidity,Sea Level PressureIn,VisibilityMPH,Wind Direction,Wind SpeedMPH,Gust SpeedMPH,PrecipitationIn,Events,Conditions,WindDirDegrees,DateUTC
12:54 AM,54.0,46.0,75,30.22,10.0,South,4.6,-,N/A,,Mostly Cloudy,180,2009-02-10 05:54:00
1:54 AM,51.1,45.0,80,30.22,10.0,Calm,Calm,-,N/A,,Mostly Cloudy,0,2009-02-10 06:54:00
2:54 AM,51.1,45.0,80,30.22,10.0,Calm,Calm,-,N/A,,Scattered Clouds,0,2009-02-10 07:54:00
3:54 AM,54.0,46.0,75,30.20,10.0,SSW,9.2,-,N/A,,Clear,210,2009-02-10 08:54:00
4:54 AM,52.0,45.0,77,30.20,10.0,South,8.1,-,N/A,,Clear,180,2009-02-10 09:54:00
5:54 AM,52.0,44.1,74,30.21,10.0,South,4.6,-,N/A,,Clear,190,2009-02-10 10:54:00
6:54 AM,50.0,43.0,77,30.22,10.0,SSE,4.6,-,N/A,,Clear,150,2009-02-10 11:54:00
7:54 AM,46.9,42.1,83,30.24,10.0,South,5.8,-,N/A,,Clear,170,2009-02-10 12:54:00
8:54 AM,54.0,44.1,69,30.24,10.0,South,9.2,-,N/A,,Clear,180,2009-02-10 13:54:00
9:54 AM,57.0,41.0,55,30.23,10.0,South,13.8,24.2,N/A,,Clear,190,2009-02-10 14:54:00
10:54 AM,60.1,39.9,47,30.22,10.0,SSW,12.7,21.9,N/A,,Clear,200,2009-02-10 15:54:00
11:54 AM,62.1,41.0,46,30.20,10.0,South,18.4,24.2,N/A,,Clear,170,2009-02-10 16:54:00
12:54 PM,62.1,41.0,46,30.19,10.0,SSW,9.2,20.7,N/A,,Clear,200,2009-02-10 17:54:00
1:54 PM,63.0,42.1,46,30.15,10.0,South,15.0,26.5,N/A,,Clear,180,2009-02-10 18:54:00
2:54 PM,64.0,42.1,45,30.14,10.0,South,13.8,-,N/A,,Partly Cloudy,180,2009-02-10 19:54:00
3:54 PM,62.1,42.1,48,30.13,10.0,SSE,10.4,-,N/A,,Clear,160,2009-02-10 20:54:00
4:54 PM,61.0,42.1,50,30.14,10.0,South,10.4,-,N/A,,Clear,180,2009-02-10 21:54:00
5:54 PM,57.9,41.0,53,30.16,10.0,South,8.1,-,N/A,,Clear,180,2009-02-10 22:54:00
6:54 PM,55.0,42.1,62,30.18,10.0,SSE,3.5,-,N/A,,Scattered Clouds,150,2009-02-10 23:54:00
7:54 PM,55.9,42.1,60,30.17,10.0,SSE,5.8,-,N/A,,Clear,150,2009-02-11 00:54:00
8:54 PM,51.1,42.1,71,30.17,10.0,ESE,3.5,-,N/A,,Clear,110,2009-02-11 01:54:00
9:54 PM,53.1,42.1,66,30.15,10.0,SE,3.5,-,N/A,,Clear,140,2009-02-11 02:54:00
11:54 PM,48.9,42.1,77,30.12,10.0,Calm,Calm,-,N/A,,Clear,0,2009-02-11 04:54:00